Central Park, NY

2:22 AM EDT on June 27, 2017 (GMT -0400)
Central Park

Weather History for KNYC - November, 2012

Change the Weather History Date:

Tuesday, November 13, 2012

  Actual Average Record
Temperature  
Mean Temperature 51 °F 49 °F  
Max Temperature 62 °F 55 °F 73 °F (1931)
Min Temperature 40 °F 43 °F 22 °F (1873)
Degree Days  
Heating Degree Days 14 16  
Month to date heating degree days 247 190  
Since 1 July heating degree days 491 503  
Cooling Degree Days 0 0  
Month to date cooling degree days 0 0  
Year to date cooling degree days 1277 1104  
Growing Degree Days 1 (Base 50)    
Moisture  
Dew Point 41 °F    
Average Humidity 72    
Maximum Humidity 90    
Minimum Humidity 53    
Precipitation  
Precipitation 0.09 in 0.13 in 2.06 in (1937)
Month to date precipitation 1.27 1.69  
Year to date precipitation 33.17 43.61  
Snow  
Snow 0.00 in 0.00 in T in (2014)
Month to date snowfall 4.7 0.0  
Since 1 July snowfall 4.7 0.0  
Snow Depth 0.00 in    
Sea Level Pressure  
Sea Level Pressure 30.29 in    
Wind  
Wind Speed 6 mph (NNW)    
Max Wind Speed 13 mph    
Max Gust Speed 22 mph    
Visibility 10 miles    
Events Rain    
T = Trace of Precipitation, MM = Missing Value Source: NWS Daily Summary

Daily Weather History Graph

Daily Weather History Graph

Search for Another Location

Airport or City:

Trip Planner

Search our weather history database for the weather conditions in past years. The results will help you decide how hot, cold, wet, or windy it might be!

Date:

Astronomy

Nov. 13, 2012 Rise Set
Actual Time 6:41 AM EST 4:39 PM EST
Civil Twilight 6:11 AM EST 5:08 PM EST
Nautical Twilight 5:38 AM EST 5:41 PM EST
Astronomical Twilight 5:06 AM EST 6:13 PM EST
Moon 6:15 AM EST (11/13) 4:29 PM EST (11/13)
Length of Visible Light 10h 56m
Length of Day
9h 58m
Waning Crescent, 0% of the Moon is Illuminated
Nov 13
Waning Crescent
Nov 13
New
Nov 20
First Quarter
Nov 28
Full
Dec 6
Last Quarter

Hourly Weather History & Observations

Time (EST) Temp. Windchill Dew Point Humidity Pressure Visibility Wind Dir Wind Speed Gust Speed Precip Events Conditions
12:51 AM 60.1 °F - 57.0 °F 90% 30.17 in 9.0 mi Variable 5.8 mph - N/A   Mostly Cloudy
1:05 AM 60.1 °F - 57.0 °F 90% 30.18 in 9.0 mi Variable 4.6 mph - N/A   Mostly Cloudy
1:51 AM 60.1 °F - 57.0 °F 90% 30.15 in 9.0 mi SSE 8.1 mph - N/A   Overcast
2:51 AM 60.1 °F - 57.0 °F 90% 30.14 in 9.0 mi Variable 5.8 mph - N/A   Overcast
3:51 AM 61.0 °F - 57.9 °F 90% 30.12 in 10.0 mi Variable 5.8 mph - N/A   Scattered Clouds
4:21 AM 55.9 °F - 48.9 °F 77% 30.19 in 10.0 mi North - - N/A   Overcast
4:49 AM 50.0 °F - 46.4 °F 87% 30.22 in 6.0 mi WNW 9.2 mph 17.3 mph 0.05 in Rain Light Rain
5:51 AM 50.0 °F - 46.0 °F 86% 30.19 in 10.0 mi Variable 4.6 mph - 0.01 in Rain Light Rain
5:58 AM 50.0 °F - 46.9 °F 89% 30.22 in 9.0 mi Variable 4.6 mph - 0.00 in Rain Light Rain
6:51 AM 48.9 °F - 45.0 °F 86% 30.23 in 7.0 mi Variable 5.8 mph - 0.00 in Rain Light Rain
7:18 AM 48.0 °F - 46.0 °F 93% 30.28 in 10.0 mi NW 4.6 mph - 0.00 in   Overcast
7:40 AM 48.0 °F - 45.0 °F 89% 30.31 in 10.0 mi Variable 4.6 mph - 0.00 in   Overcast
7:51 AM 48.0 °F - 43.0 °F 83% 30.29 in 10.0 mi NNW 6.9 mph - 0.00 in   Overcast
8:51 AM 46.9 °F - 43.0 °F 86% 30.29 in 10.0 mi Variable 4.6 mph - 0.00 in   Overcast
9:51 AM 46.9 °F - 43.0 °F 86% 30.29 in 7.0 mi WNW 8.1 mph 16.1 mph 0.00 in Rain Light Rain
10:18 AM 46.0 °F 42.5 °F 43.0 °F 89% 30.31 in 10.0 mi Variable 6.9 mph - 0.01 in   Overcast
10:51 AM 46.0 °F 42.5 °F 42.1 °F 86% 30.30 in 8.0 mi Variable 6.9 mph - 0.01 in Rain Light Rain
11:40 AM 45.0 °F 43.5 °F 39.9 °F 82% 30.32 in 10.0 mi Variable 3.5 mph - 0.01 in   Overcast
11:51 AM 45.0 °F 43.5 °F 39.9 °F 82% 30.30 in 10.0 mi Variable 3.5 mph - 0.01 in   Overcast
12:42 PM 45.0 °F 42.6 °F 36.0 °F 71% 30.33 in 10.0 mi Variable 4.6 mph - N/A   Overcast
12:51 PM 45.0 °F 40.6 °F 37.0 °F 74% 30.31 in 10.0 mi North 8.1 mph - N/A   Overcast
1:51 PM 44.1 °F 41.5 °F 39.0 °F 82% 30.31 in 10.0 mi Variable 4.6 mph - 0.01 in   Overcast
2:51 PM 46.0 °F 44.8 °F 37.0 °F 71% 30.31 in 10.0 mi Variable 3.5 mph - N/A   Overcast
3:18 PM 46.0 °F 43.1 °F 37.9 °F 73% 30.34 in 10.0 mi North 5.8 mph - N/A   Overcast
3:51 PM 46.0 °F 41.9 °F 37.0 °F 71% 30.32 in 10.0 mi North 8.1 mph - N/A   Overcast
4:51 PM 45.0 °F 41.2 °F 30.9 °F 58% 30.34 in 10.0 mi NW 6.9 mph - N/A   Overcast
5:51 PM 45.0 °F 43.5 °F 32.0 °F 60% 30.36 in 10.0 mi Variable 3.5 mph - N/A   Overcast
6:51 PM 44.1 °F 40.8 °F 30.0 °F 58% 30.39 in 10.0 mi Variable 5.8 mph - N/A   Overcast
7:51 PM 44.1 °F 40.1 °F 28.9 °F 55% 30.40 in 10.0 mi Variable 6.9 mph - N/A   Overcast
8:51 PM 43.0 °F 38.2 °F 28.9 °F 58% 30.43 in 10.0 mi North 8.1 mph - N/A   Overcast
9:51 PM 43.0 °F 40.3 °F 28.9 °F 58% 30.44 in 10.0 mi Variable 4.6 mph - N/A   Overcast
10:51 PM 41.0 °F 37.1 °F 28.0 °F 60% 30.44 in 10.0 mi Variable 5.8 mph - N/A   Scattered Clouds
11:51 PM 39.9 °F 33.4 °F 27.0 °F 60% 30.45 in 10.0 mi NE 10.4 mph 17.3 mph N/A   Mostly Cloudy